Location: Bush Observatory
(40.2653°N, 94.3194°W)
Time: 23:33:30
(UTC-05:00)

Iridium 13 - Visible Passes

Search period start: 26 May 2016 00:00
Search period end: 05 June 2016 00:00
Orbit: 776 x 779 km, 86.4° (Epoch: 26 May)

Date Brightness Start Highest point End Pass type
(mag) Time Alt. Az. Time Alt. Az. Time Alt. Az.
28 May 8.8 05:07:40 10° NE 05:09:33 12° ENE 05:11:26 10° E visible
31 May 8.4 05:06:28 10° NE 05:09:54 17° ENE 05:13:17 10° ESE visible
03 Jun 8.0 05:05:55 10° NNE 05:10:11 25° ENE 05:14:25 10° SE visible
04 Jun 8.5 04:33:46 10° NE 04:36:19 14° ENE 04:38:53 10° ESE visible
